Regional Weather Roundup
Issued by NWS

Home | Current Version | Previous Version | Text Only | Print | Product List | Glossary Off
Versions: 1 2 3 4 5 6 7 8 9 10 11 12 13 14 15 16 17 18 19 20 21 22 23 24 25 26 27 28 29 30 31 32 33 34 35 36 37 38 39 40 41 42 43 44 45 46 47 48 49 50

000
ASUS43 KLSX 281010
RWRMO

WEATHER SUMMARY FOR MISSOURI
NATIONAL WEATHER SERVICE SPRINGFIELD MO
500 AM CDT FRI AUG 28 2015

NOTE: "FAIR" INDICATES FEW OR NO CLOUDS BELOW 12,000 FEET WITH NO
       SIGNIFICANT WEATHER AND/OR OBSTRUCTIONS TO VISIBILITY.
       CURRENT SKY AND/OR WEATHER CONDITIONS ARE NOT AVAILABLE FOR
       CHILLICOTHE AND FARMINGTON.

MOZ001>031-035>038-043-044-053-054-281100-
...NORTHERN AND WESTERN MISSOURI...

CITY           SKY/WX    TMP DP  RH WIND       PRES   REMARKS
KANSAS CTY INT CLOUDY    69  64  84 S10       29.97S
KANSAS C DTWN  CLOUDY    71  65  81 S9        29.97F
LEE`S SUMMIT   CLOUDY    67  63  87 S7        29.99F
ST JOSEPH      CLOUDY    70  65  84 SE10G21   29.93F
CHILLICOTHE      N/A     66  61  84 S8        30.02S
KIRKSVILLE     MOCLDY    61  58  90 S9        30.05F

$$
MOZ066>068-077>081-088>096-101>105-281100-
...SOUTHWEST MISSOURI...

CITY           SKY/WX    TMP DP  RH WIND       PRES   REMARKS
SPRINGFIELD    PTCLDY    64  58  80 S9        30.05R
JOPLIN         CLOUDY    67  62  84 SE6       30.03R

$$
MOZ032>034-039>042-045>050-055>058-069>072-281100-
...CENTRAL MISSOURI...

CITY           SKY/WX    TMP DP  RH WIND       PRES   REMARKS
COLUMBIA       PTCLDY    61  59  93 SE8       30.08R
JEFFERSON CITY MOCLDY    64  59  83 E6        30.07S
ROLLA          MOCLDY    59  57  93 SE7       30.08S
SEDALIA        CLOUDY    65  60  84 S9        30.05S
WHITEMAN AFB   PTCLDY    66  61  83 S8        30.02S
WARRENSBURG    CLOUDY    64  61  88 SE6       30.02S
OSAGE BEACH    MOCLDY    61  55  82 CALM      30.07S

$$
MOZ051-052-059>065-281100-
...EAST CENTRAL MISSOURI...

CITY           SKY/WX    TMP DP  RH WIND       PRES   REMARKS
ST LOUIS INTL  PTCLDY    64  58  80 SE6       30.10S
SPIRIT OF STL  CLEAR     58  58 100 CALM      30.09S
ST CHARLES     CLEAR     61  60  97 E5        30.09S

$$
MOZ072>076-082>087-097>100-106>115-281100-
...SOUTH CENTRAL AND SOUTHEAST MISSOURI...

CITY           SKY/WX    TMP DP  RH WIND       PRES   REMARKS
CAPE GIRARDEAU FOG       56  56 100 CALM      30.10S VSB 1/2
FARMINGTON     CLEAR     55  54  94 CALM      30.12S
POPLAR BLUFF   PTCLDY    57  56  96 N3        30.08R
WEST PLAINS    PTCLDY    58  55  90 CALM      30.10S

$$



USA.gov is the U.S. government's official web portal to all federal, state and local government web resources and services.